Overview Statistics Trail Chart Weather Telemetry Raw packets
 

This is the latest recevied weather packets stored in our database for station/object SR3AK-10. If no packets are shown the sender has not sent any weather packets the latest 10 day(s).

<< 22 23 24 25 26 27 28 >>
Time Temp. Humidity Pressure Rain* Wind** Luminosity Snow
1777116090 13.33° C 65% 1005.8 hPa - - - -
1777115189 13.89° C 65% 1006 hPa - - - -
1777114288 13.89° C 65% 1006.1 hPa - - - -
1777113388 13.89° C 65% 1006.3 hPa - - - -
1777112488 13.89° C 65% 1006.3 hPa - - - -
1777111587 13.89° C 65% 1006.3 hPa - - - -
1777110687 13.89° C 64% 1006.4 hPa - - - -
1777109786 13.89° C 64% 1006.5 hPa - - - -
1777108885 13.89° C 64% 1006.5 hPa - - - -
1777107985 14.44° C 63% 1006.6 hPa - - - -
1777107084 14.44° C 63% 1006.6 hPa - - - -
1777106184 14.44° C 63% 1006.8 hPa - - - -
1777105284 13.89° C 63% 1006.9 hPa - - - -
1777104384 13.89° C 64% 1006.7 hPa - - - -
1777103484 13.33° C 65% 1006.9 hPa - - - -
1777102583 13.33° C 65% 1006.8 hPa - - - -
1777101683 13.89° C 65% 1006.9 hPa - - - -
1777100782 14.44° C 63% 1007 hPa - - - -
1777099884 12.78° C 67% 1007 hPa - - - -
1777098984 12.78° C 67% 1007 hPa - - - -
1777098082 12.78° C 67% 1006.7 hPa - - - -
1777097183 12.78° C 67% 1006.9 hPa - - - -
1777096282 12.78° C 67% 1006.8 hPa - - - -
1777095380 12.78° C 68% 1006.9 hPa - - - -
1777094480 12.78° C 68% 1006.9 hPa - - - -

* Rain since midnight (hover to see other rain measurements)
** Current wind speed in m/s (hover to see current wind gust speed)